FW6819 Weather Reports


Display with metric or nautical units.
time (UTC)temp
F
wind
direction
speed
MPH
gust
MPH
rain 1hr
in
rain 24hr
in
rain mn
in
humidity
%
barometer
mb
20260507105113 53 304 0.0 0.0 0.00 0.17 0.17 89 1013.2
20260507104611 54 304 0.0 0.0 0.00 0.17 0.17 90 1013.1
20260507104108 54 304 0.0 0.0 0.00 0.17 0.17 91 1012.8
20260507103604 54 304 0.0 0.0 0.00 0.17 0.17 91 1012.5
20260507103100 54 304 0.0 0.0 0.00 0.17 0.17 92 1012.6
20260507102557 54 304 0.0 0.0 0.00 0.17 0.17 92 1012.6
20260507102053 54 304 0.0 0.0 0.00 0.17 0.17 92 1012.6
20260507101548 53 304 0.0 0.0 0.00 0.17 0.17 92 1012.5
20260507101045 53 304 0.0 0.0 0.00 0.17 0.17 92 1012.7
20260507100543 53 304 0.0 0.0 0.00 0.17 0.17 93 1012.6
20260507100041 53 304 0.0 0.0 0.00 0.17 0.17 93 1012.5
20260507095538 53 304 0.0 0.0 0.00 0.17 0.17 93 1012.5
20260507095034 54 304 0.0 0.0 0.00 0.17 0.17 94 1012.5
20260507094531 54 304 0.0 0.0 0.00 0.17 0.17 94 1012.5
20260507094028 54 304 0.0 0.0 0.00 0.17 0.17 94 1012.3
20260507093526 54 304 0.0 0.0 0.00 0.17 0.17 94 1012.6
20260507093024 54 304 0.0 0.0 0.00 0.17 0.17 94 1012.3
20260507092520 54 304 0.0 0.0 0.00 0.17 0.17 94 1012.4
20260507092017 54 304 0.0 0.0 0.00 0.17 0.17 93 1012.6
20260507091514 54 304 0.0 0.0 0.00 0.17 0.17 93 1012.8
20260507091010 54 304 0.0 0.0 0.00 0.17 0.17 93 1012.4
20260507090505 53 304 0.0 0.0 0.00 0.17 0.17 93 1012.4
20260507090002 53 304 0.0 0.0 0.00 0.17 0.17 93 1012.5
20260507085459 53 304 0.0 0.0 0.00 0.17 0.17 93 1012.2
20260507084956 54 304 0.0 0.0 0.00 0.17 0.17 93 1012.2
20260507084453 54 304 0.0 0.0 0.00 0.17 0.17 93 1012.0
20260507083950 54 304 1.0 2.0 0.00 0.17 0.17 93 1012.5
20260507083446 54 304 0.0 0.0 0.00 0.17 0.17 93 1012.6
20260507082943 54 304 0.0 0.0 0.00 0.17 0.17 92 1012.3
20260507082439 54 304 1.0 1.0 0.00 0.17 0.17 92 1012.2
20260507081935 54 304 0.0 1.0 0.00 0.17 0.17 91 1012.0
20260507081432 54 304 0.0 0.0 0.00 0.17 0.17 91 1011.9
20260507080929 54 304 2.0 2.0 0.00 0.17 0.17 91 1011.7
20260507080425 54 304 0.0 1.0 0.00 0.17 0.17 91 1011.7
20260507075920 54 304 0.0 0.0 0.00 0.17 0.17 92 1011.5
20260507075416 54 304 1.0 2.0 0.00 0.17 0.17 94 1011.5
20260507074913 55 304 0.0 0.0 0.00 0.17 0.17 96 1011.6
20260507074410 55 304 1.0 1.0 0.00 0.17 0.17 96 1011.3
20260507073908 55 304 2.0 2.0 0.00 0.17 0.17 97 1011.1
20260507073404 55 304 0.0 0.0 0.00 0.17 0.17 97 1011.1
20260507072901 55 304 0.0 1.0 0.00 0.17 0.17 97 1011.2
20260507072359 55 304 1.0 1.0 0.00 0.17 0.17 97 1011.1
20260507071856 55 304 2.0 3.0 0.00 0.17 0.17 98 1011.1
20260507071353 56 304 0.0 0.0 0.00 0.17 0.17 98 1011.0
20260507070849 56 304 1.0 1.0 0.00 0.17 0.17 98 1011.1
20260507070347 55 304 0.0 0.0 0.00 0.17 0.17 97 1011.2
20260507065843 56 304 1.0 1.0 0.00 0.17 0.17 97 1011.3
20260507065340 56 304 0.0 0.0 0.00 0.17 0.17 97 1011.2
20260507064837 55 304 3.0 6.0 0.00 0.17 0.17 97 1011.5
20260507064336 56 304 1.0 1.0 0.00 0.17 0.17 97 1011.3
20260507063833 56 304 0.0 0.0 0.00 0.17 0.17 97 1011.1
20260507063330 56 304 2.0 2.0 0.00 0.17 0.17 97 1011.1
20260507062826 56 304 1.0 1.0 0.00 0.17 0.17 97 1010.8
20260507062323 56 304 1.0 3.0 0.00 0.17 0.17 97 1010.7
20260507061822 56 304 0.0 1.0 0.00 0.17 0.17 97 1010.6
20260507061319 56 304 1.0 1.0 0.00 0.17 0.17 97 1010.9
20260507060818 57 304 1.0 1.0 0.00 0.17 0.17 97 1010.8
20260507060314 57 304 1.0 1.0 0.00 0.17 0.17 97 1010.8
20260507055811 57 304 1.0 2.0 0.00 0.17 0.17 96 1011.1
20260507055306 57 304 4.0 6.0 0.00 0.17 0.17 96 1011.0
20260507054802 57 304 2.0 2.0 0.00 0.17 0.17 96 1011.2
20260507054259 58 304 3.0 3.0 0.07 0.17 0.17 97 1011.2
20260507053756 58 304 0.0 0.0 0.07 0.17 0.17 97 1010.9
20260507053254 58 304 0.0 0.0 0.07 0.16 0.16 97 1010.7
20260507052753 58 304 0.0 0.0 0.19 0.16 0.16 96 1010.8
20260507052249 59 304 0.0 0.0 0.28 0.15 0.15 96 1011.0
20260507051747 59 304 1.0 1.0 0.28 0.13 0.13 95 1011.2
20260507051243 59 304 2.0 2.0 0.24 0.11 0.11 95 1011.4
20260507050740 59 305 2.0 2.0 0.24 0.08 0.08 94 1011.4
20260507050237 60 306 0.0 0.0 0.31 0.07 0.07 93 1011.2
20260507045734 60 307 1.0 2.0 0.19 0.04 0.04 90 1011.1
20260507045230 60 306 0.0 0.0 0.05 0.02 0.02 87 1010.8
20260507044727 61 304 0.0 0.0 0.00 0.01 0.01 86 1011.2
20260507044224 61 304 0.0 0.0 0.07 0.01 0.01 85 1011.2
20260507043720 62 304 1.0 2.0 0.07 0.01 0.01 82 1011.2
20260507043217 63 304 3.0 3.0 0.00 0.00 0.00 79 1011.4
20260507042713 63 304 3.0 3.0 0.00 0.00 0.00 79 1011.1
20260507042208 63 304 1.0 2.0 0.00 0.00 0.00 80 1011.2
20260507041706 64 304 6.0 8.0 0.00 0.00 0.00 80 1011.2
20260507041202 64 304 3.0 3.0 0.00 0.00 0.00 81 1011.2
20260507040659 64 304 1.0 1.0 0.00 0.00 0.00 81 1010.7
20260507040155 64 304 3.0 3.0 0.00 0.00 0.00 84 1010.7
20260507035651 64 304 0.0 1.0 0.00 0.16 0.16 86 1010.7
20260507035148 64 304 1.0 2.0 0.00 0.16 0.16 86 1010.9
20260507034644 65 304 1.0 2.0 0.00 0.16 0.16 89 1010.8
20260507034142 65 304 2.0 2.0 0.00 0.16 0.16 89 1010.6
20260507033640 65 304 2.0 2.0 0.00 0.16 0.16 88 1010.8
20260507033137 65 305 4.0 5.0 0.00 0.16 0.16 87 1010.6
20260507032635 65 309 1.0 1.0 0.00 0.16 0.16 87 1010.3
20260507032130 66 313 3.0 5.0 0.00 0.16 0.16 87 1010.4
20260507031627 66 318 2.0 2.0 0.00 0.16 0.16 86 1010.3
20260507031124 66 323 2.0 2.0 0.00 0.16 0.16 86 1010.3
20260507030621 66 329 0.0 1.0 0.00 0.16 0.16 85 1010.2
20260507030118 66 338 3.0 6.0 0.00 0.16 0.16 86 1010.4
20260507025616 66 346 3.0 3.0 0.00 0.16 0.16 87 1010.2
20260507025112 66 352 2.0 2.0 0.00 0.16 0.16 87 1010.1
20260507024611 66 359 2.0 2.0 0.00 0.16 0.16 88 1010.0
20260507024107 66 7 2.0 2.0 0.00 0.16 0.16 88 1010.2
20260507023603 66 22 2.0 2.0 0.00 0.16 0.16 90 1010.0
20260507023101 66 28 0.0 0.0 0.00 0.16 0.16 90 1009.8
20260507022557 66 33 0.0 0.0 0.00 0.16 0.16 90 1009.8
20260507022052 66 41 0.0 0.0 0.00 0.16 0.16 90 1009.7
20260507021549 66 46 0.0 0.0 0.00 0.16 0.16 90 1009.6
20260507021045 66 52 0.0 0.0 0.00 0.16 0.16 90 1009.6
20260507020543 66 61 0.0 0.0 0.00 0.16 0.16 90 1009.6
20260507020034 66 64 0.0 0.0 0.00 0.16 0.16 90 1009.7
20260507015532 66 65 0.0 0.0 0.00 0.16 0.16 89 1009.7
20260507015029 66 67 0.0 0.0 0.00 0.16 0.16 88 1009.6
20260507014526 66 70 0.0 0.0 0.00 0.16 0.16 88 1009.6
20260507014021 66 73 0.0 0.0 0.00 0.16 0.16 89 1009.8
20260507013518 66 76 0.0 0.0 0.00 0.16 0.16 89 1009.9
20260507013016 66 79 0.0 0.0 0.00 0.16 0.16 89 1010.1
20260507012512 66 81 0.0 0.0 0.00 0.16 0.16 89 1010.3
20260507012009 66 83 0.0 0.0 0.00 0.16 0.16 89 1010.4
20260507011506 66 86 0.0 0.0 0.00 0.16 0.16 89 1010.4
20260507011002 66 89 0.0 0.0 0.00 0.16 0.16 89 1010.2
20260507010456 66 91 0.0 0.0 0.00 0.16 0.16 89 1010.2
20260507005954 66 94 0.0 0.0 0.00 0.16 0.16 89 1010.0
20260507005451 66 96 0.0 0.0 0.00 0.16 0.16 89 1010.0
20260507004947 66 97 0.0 0.0 0.00 0.16 0.16 88 1009.6
20260507004444 66 97 0.0 0.0 0.00 0.16 0.16 88 1009.6
20260507003942 66 99 0.0 0.0 0.00 0.16 0.16 88 1009.8
20260507003437 66 100 0.0 0.0 0.00 0.16 0.16 87 1009.9
20260507002932 67 100 0.0 0.0 0.00 0.16 0.16 87 1009.9
20260507002428 67 100 0.0 0.0 0.00 0.16 0.16 86 1009.6
20260507001926 67 101 0.0 0.0 0.00 0.16 0.16 85 1009.6
20260507001422 68 101 0.0 0.0 0.00 0.16 0.16 85 1009.5
20260507000920 68 102 0.0 0.0 0.00 0.16 0.16 85 1009.8
20260507000415 68 102 0.0 0.0 0.00 0.16 0.16 84 1009.8
20260506235911 68 102 0.0 0.0 0.00 0.16 0.16 83 1009.5
20260506235409 68 101 0.0 0.0 0.00 0.16 0.16 83 1009.5
20260506234904 68 99 0.0 0.0 0.00 0.16 0.16 83 1009.5
20260506234402 68 100 0.0 0.0 0.00 0.16 0.16 83 1009.4
20260506233859 68 99 0.0 0.0 0.00 0.16 0.16 83 1009.2
20260506233355 68 98 0.0 0.0 0.00 0.16 0.16 83 1009.4
20260506232852 68 93 0.0 0.0 0.00 0.16 0.16 82 1009.1
20260506232348 69 90 0.0 0.0 0.00 0.16 0.16 82 1009.2
20260506231844 69 81 0.0 0.0 0.00 0.16 0.16 81 1009.1
20260506231342 69 73 0.0 0.0 0.00 0.16 0.16 81 1009.3
20260506230839 69 57 0.0 0.0 0.00 0.16 0.16 80 1009.0
20260506230336 69 34 0.0 0.0 0.00 0.16 0.16 80 1009.0
20260506225832 69 28 1.0 1.0 0.00 0.16 0.16 81 1009.3
20260506225330 69 12 0.0 0.0 0.00 0.16 0.16 80 1009.2
20260506224827 69 355 0.0 0.0 0.00 0.16 0.16 80 1009.2
20260506224324 69 343 1.0 2.0 0.00 0.16 0.16 80 1009.0
20260506223820 70 348 2.0 2.0 0.00 0.16 0.16 79 1009.0
20260506223309 70 345 0.0 0.0 0.00 0.16 0.16 79 1008.8
20260506222807 70 337 1.0 2.0 0.00 0.16 0.16 79 1008.9
20260506222305 70 323 1.0 1.0 0.00 0.16 0.16 79 1009.1
20260506221800 70 323 3.0 3.0 0.00 0.16 0.16 79 1009.1
20260506221258 70 322 1.0 2.0 0.00 0.16 0.16 79 1009.1
20260506220755 70 323 3.0 3.0 0.00 0.16 0.16 79 1009.2
20260506220250 70 318 4.0 5.0 0.00 0.16 0.16 78 1008.8
20260506215747 70 313 2.0 3.0 0.00 0.16 0.16 78 1009.0
20260506215242 70 308 1.0 2.0 0.00 0.16 0.16 78 1009.1
20260506214733 70 307 1.0 2.0 0.00 0.16 0.16 78 1009.2
20260506214230 70 306 1.0 2.0 0.00 0.16 0.16 80 1009.2
20260506213728 70 308 3.0 3.0 0.00 0.16 0.16 78 1009.0
20260506213226 71 307 1.0 2.0 0.00 0.16 0.16 78 1009.1
20260506212723 71 304 0.0 0.0 0.00 0.16 0.16 78 1009.1
20260506212218 71 304 4.0 8.0 0.00 0.16 0.16 77 1008.7
20260506211714 71 306 5.0 7.0 0.00 0.16 0.16 77 1008.9
20260506211210 70 307 3.0 3.0 0.00 0.16 0.16 78 1009.0
20260506210707 71 310 4.0 5.0 0.00 0.16 0.16 78 1008.8
20260506210204 71 311 3.0 5.0 0.00 0.16 0.16 78 1008.8
20260506205701 70 308 3.0 5.0 0.00 0.16 0.16 79 1008.6
20260506205156 70 306 2.0 3.0 0.00 0.16 0.16 79 1008.7
20260506204654 70 311 4.0 7.0 0.00 0.16 0.16 79 1008.7
20260506204151 70 313 1.0 2.0 0.00 0.16 0.16 79 1008.6
20260506203649 70 307 0.0 1.0 0.00 0.16 0.16 78 1008.7
20260506203146 70 309 2.0 3.0 0.00 0.16 0.16 79 1008.8
20260506202644 71 315 8.0 10.0 0.00 0.16 0.16 78 1008.7
20260506202139 70 313 2.0 3.0 0.00 0.16 0.16 79 1008.5
20260506201636 70 310 2.0 3.0 0.00 0.16 0.16 78 1008.6
20260506201133 70 307 3.0 5.0 0.00 0.16 0.16 79 1008.9
20260506200629 70 309 4.0 6.0 0.00 0.16 0.16 79 1008.7
20260506200127 70 311 5.0 6.0 0.00 0.16 0.16 79 1008.6
20260506195623 70 313 1.0 2.0 0.00 0.16 0.16 80 1008.7
20260506195119 70 313 3.0 5.0 0.00 0.16 0.16 79 1008.6
20260506194617 70 311 4.0 5.0 0.00 0.16 0.16 78 1008.7
20260506194113 70 308 1.0 2.0 0.00 0.16 0.16 79 1008.6
20260506193611 70 309 8.0 13.0 0.00 0.16 0.16 78 1008.8
20260506193108 71 317 1.0 1.0 0.00 0.16 0.16 77 1008.8
20260506192605 70 315 4.0 6.0 0.00 0.16 0.16 78 1008.8
20260506192101 69 318 3.0 5.0 0.00 0.16 0.16 78 1009.0
20260506191557 69 318 7.0 9.0 0.00 0.16 0.16 79 1008.9
20260506191053 69 319 2.0 3.0 0.00 0.16 0.16 80 1009.1
20260506190551 69 319 2.0 2.0 0.00 0.16 0.16 79 1009.0
20260506190048 69 317 2.0 3.0 0.00 0.16 0.16 79 1009.2
20260506185545 69 315 2.0 2.0 0.00 0.16 0.16 79 1009.0
20260506185041 69 314 1.0 2.0 0.00 0.16 0.16 80 1009.2
20260506184539 69 315 5.0 6.0 0.00 0.16 0.16 79 1009.3
20260506184036 69 313 5.0 6.0 0.00 0.16 0.16 79 1009.3
20260506183532 69 314 3.0 3.0 0.00 0.16 0.16 78 1009.0
20260506183029 69 313 0.0 1.0 0.00 0.16 0.16 79 1009.5
20260506182526 69 310 1.0 1.0 0.00 0.16 0.16 79 1009.4
20260506182023 69 306 0.0 1.0 0.00 0.16 0.16 79 1009.5
20260506181521 69 304 4.0 8.0 0.00 0.16 0.16 80 1009.5
20260506181018 69 304 2.0 2.0 0.00 0.16 0.16 80 1009.7
20260506180514 68 304 1.0 2.0 0.00 0.16 0.16 81 1009.6
20260506180010 68 304 7.0 11.0 0.00 0.16 0.16 80 1009.8
20260506175507 68 304 2.0 2.0 0.00 0.16 0.16 81 1009.8
20260506175004 68 304 0.0 1.0 0.00 0.16 0.16 82 1009.7
20260506174502 68 304 2.0 3.0 0.00 0.16 0.16 83 1009.8
20260506173958 67 304 4.0 7.0 0.00 0.16 0.16 82 1010.0
20260506173456 67 304 0.0 1.0 0.00 0.16 0.16 83 1009.9
20260506172952 67 304 1.0 1.0 0.00 0.16 0.16 83 1009.6
20260506172450 66 304 1.0 2.0 0.00 0.16 0.16 85 1009.9
20260506171946 66 304 4.0 5.0 0.00 0.16 0.16 85 1009.8
20260506171443 66 304 3.0 7.0 0.00 0.16 0.16 85 1010.4
20260506170941 66 304 8.0 11.0 0.00 0.16 0.16 84 1009.9
20260506170437 66 304 3.0 5.0 0.00 0.16 0.16 85 1010.1
20260506165931 66 304 4.0 7.0 0.00 0.16 0.16 86 1010.0
20260506165429 66 304 2.0 2.0 0.00 0.16 0.16 88 1010.0
20260506164924 65 304 1.0 2.0 0.00 0.16 0.16 90 1010.0
20260506164420 64 304 1.0 2.0 0.00 0.16 0.16 93 1010.1
20260506163914 63 304 3.0 7.0 0.00 0.16 0.16 94 1010.2
20260506163408 63 304 0.0 1.0 0.00 0.16 0.16 95 1010.1
20260506162903 63 304 1.0 2.0 0.00 0.16 0.16 95 1010.0
20260506162401 63 304 2.0 3.0 0.00 0.16 0.16 96 1010.1
20260506161858 63 304 0.0 0.0 0.00 0.16 0.16 95 1010.3
20260506161356 63 304 1.0 1.0 0.00 0.16 0.16 97 1009.9
20260506160853 62 304 2.0 3.0 0.00 0.16 0.16 96 1010.2
20260506160350 62 304 4.0 6.0 0.00 0.16 0.16 97 1010.4
20260506155848 62 304 2.0 2.0 0.05 0.16 0.16 97 1010.6
20260506155344 62 304 0.0 1.0 0.05 0.16 0.16 97 1010.5
20260506153502 61 304 0.0 1.0 0.07 0.15 0.15 97 1010.5
20260506152959 61 304 1.0 2.0 0.05 0.14 0.14 97 1010.4
20260506152456 61 304 0.0 0.0 0.12 0.14 0.14 97 1010.7
20260506151954 61 304 0.0 1.0 0.07 0.13 0.13 97 1011.0
20260506151452 61 304 0.0 1.0 0.05 0.12 0.12 97 1011.2
20260506150949 61 304 0.0 1.0 0.05 0.12 0.12 97 1011.3
20260506150445 61 304 2.0 2.0 0.00 0.11 0.11 96 1011.4
20260506145942 61 304 0.0 0.0 0.00 0.11 0.11 96 1011.4
20260506145438 61 306 0.0 1.0 0.00 0.11 0.11 96 1011.5
20260506144936 61 311 0.0 0.0 0.07 0.11 0.11 96 1011.4
20260506144432 61 317 0.0 1.0 0.24 0.11 0.11 95 1011.4
20260506143931 61 327 0.0 1.0 0.31 0.10 0.10 94 1011.5
20260506143427 61 338 1.0 1.0 0.24 0.08 0.08 93 1011.5
20260506142926 61 350 2.0 3.0 0.19 0.06 0.06 92 1011.4
20260506142423 62 1 0.0 1.0 0.07 0.04 0.04 91 1011.1
20260506141921 62 18 1.0 2.0 0.05 0.03 0.03 89 1011.4
20260506141419 62 52 1.0 2.0 0.05 0.03 0.03 88 1011.2
20260506140918 62 81 1.0 1.0 0.00 0.02 0.02 88 1011.4
20260506140414 62 97 1.0 2.0 0.07 0.02 0.02 88 1011.3
20260506135911 63 109 0.0 0.0 0.07 0.02 0.02 87 1011.5
20260506135408 63 115 1.0 1.0 0.05 0.01 0.01 85 1011.5
20260506134904 64 120 0.0 1.0 0.05 0.01 0.01 83 1011.4
20260506134400 64 123 1.0 2.0 0.00 0.00 0.00 82 1011.8
20260506133857 64 124 0.0 1.0 0.00 0.00 0.00 82 1011.7
20260506133353 64 124 1.0 1.0 0.00 0.00 0.00 82 1011.7
20260506132850 65 124 1.0 1.0 0.00 0.00 0.00 81 1011.6
20260506132348 65 124 1.0 1.0 0.00 0.00 0.00 80 1011.5
20260506131846 65 124 0.0 0.0 0.00 0.00 0.00 79 1011.2
20260506131342 65 124 2.0 2.0 0.00 0.00 0.00 79 1011.3
20260506130839 65 124 1.0 1.0 0.00 0.00 0.00 79 1011.2
20260506130335 65 124 0.0 0.0 0.00 0.00 0.00 79 1011.1
20260506125833 65 124 0.0 1.0 0.00 0.00 0.00 79 1011.1
20260506125331 65 124 2.0 3.0 0.00 0.00 0.00 78 1010.9
20260506124830 65 124 1.0 1.0 0.00 0.00 0.00 78 1011.0
20260506124326 66 124 1.0 2.0 0.00 0.00 0.00 77 1011.1
20260506123824 66 124 1.0 1.0 0.00 0.00 0.00 77 1011.2
20260506123322 65 124 0.0 0.0 0.00 0.00 0.00 77 1011.1
20260506122819 65 124 2.0 3.0 0.00 0.00 0.00 77 1011.2
20260506122316 66 124 0.0 1.0 0.00 0.00 0.00 77 1011.4
20260506121814 66 124 0.0 1.0 0.00 0.00 0.00 77 1011.4
20260506121311 66 124 1.0 2.0 0.00 0.00 0.00 76 1011.2
20260506120808 66 124 2.0 3.0 0.00 0.00 0.00 76 1011.3
20260506120306 66 124 1.0 2.0 0.00 0.00 0.00 76 1011.4
20260506115803 66 125 5.0 7.0 0.00 0.00 0.00 76 1011.4
20260506115306 66 124 3.0 3.0 0.00 0.00 0.00 76 1011.4
20260506114759 66 124 2.0 2.0 0.00 0.00 0.00 76 1011.1
20260506114256 66 124 1.0 1.0 0.00 0.00 0.00 76 1011.1
20260506113755 66 124 6.0 7.0 0.00 0.00 0.00 75 1011.0
20260506113252 66 124 1.0 2.0 0.00 0.00 0.00 76 1011.0
20260506112748 66 124 0.0 0.0 0.00 0.00 0.00 76 1011.0
20260506112245 66 124 3.0 5.0 0.00 0.00 0.00 76 1011.0
20260506111743 66 124 3.0 3.0 0.00 0.00 0.00 76 1010.9
20260506111241 66 124 1.0 1.0 0.00 0.00 0.00 77 1010.9
20260506110737 65 124 2.0 3.0 0.00 0.00 0.00 77 1010.8
20260506110235 65 124 0.0 1.0 0.00 0.00 0.00 77 1010.8
20260506105732 65 124 0.0 1.0 0.00 0.00 0.00 77 1011.0